Weather History for Ogallala, NE

Change the Weather History Date:

Thursday, December 12, 2013

  Actual Average Record
Temperature  
Mean Temperature 32 °F -  
Max Temperature 54 °F 41 °F 63 °F (1968)
Min Temperature 11 °F 16 °F -16 °F (1961)
Degree Days  
Heating Degree Days 32    
Moisture  
Dew Point 12 °F    
Average Humidity 63    
Maximum Humidity 88    
Minimum Humidity 20    
Precipitation  
Precipitation 0.00 in - - ()
Sea Level Pressure  
Sea Level Pressure 30.13 in    
Wind  
Wind Speed 5 mph (West)    
Max Wind Speed 10 mph    
Max Gust Speed -    
Visibility 10 miles    
Events      
Averages and records for this station are not official NWS values.
T = Trace of Precipitation, MM = Missing Value Source: NWS Daily Summary

Daily Weather History Graph

Daily Weather History Graph

Search for Another Location

Airport:

Trip Planner

Search our weather history database for the weather conditions in past years. The results will help you decide how hot, cold, wet, or windy it might be!

Date:

Astronomy

Dec. 12, 2013 Rise Set
Actual Time 7:03 AM MST 4:18 PM MST
Civil Twilight 6:32 AM MST 4:49 PM MST
Nautical Twilight 5:57 AM MST 5:24 PM MST
Astronomical Twilight 5:24 AM MST 5:57 PM MST
Moon 1:28 PM MST (12/12) 2:26 AM MST (12/12)
Length of Visible Light 10h 17m
Length of Day
9h 15m
Waxing Gibbous, 81% of the Moon is Illuminated
Dec 12
Waxing Gibbous
Dec 17
Full
Dec 25
Last Quarter
Jan 1
New
Jan 7
First Quarter

Hourly Weather History & Observations

Time (MST) Temp. Windchill Dew Point Humidity Pressure Visibility Wind Dir Wind Speed Gust Speed Precip Events Conditions
12:15 AM 15.6 °F 8.3 °F 11.7 °F 84% 30.30 in 10.0 mi WSW 4.6 mph - N/A   Clear
12:35 AM 13.6 °F 3.5 °F 10.4 °F 87% 30.30 in 10.0 mi WSW 6.9 mph - N/A   Clear
12:55 AM 14.5 °F 4.6 °F 10.8 °F 85% 30.29 in 10.0 mi WSW 6.9 mph - N/A   Clear
1:15 AM 12.4 °F 4.6 °F 8.6 °F 85% 30.29 in 10.0 mi WSW 4.6 mph - N/A   Clear
1:35 AM 12.6 °F 1.1 °F 9.3 °F 87% 30.29 in 10.0 mi West 8.1 mph - N/A   Clear
1:55 AM 14.2 °F 4.1 °F 10.6 °F 86% 30.29 in 10.0 mi West 6.9 mph - N/A   Clear
2:15 AM 13.3 °F 3.0 °F 10.0 °F 87% 30.30 in 10.0 mi WSW 6.9 mph - N/A   Clear
2:35 AM 13.5 °F 1.3 °F 10.0 °F 86% 30.29 in 10.0 mi West 9.2 mph - N/A   Clear
2:55 AM 13.8 °F 3.7 °F 10.4 °F 86% 30.29 in 10.0 mi WSW 6.9 mph - N/A   Clear
3:15 AM 14.4 °F 1.6 °F 10.9 °F 86% 30.28 in 10.0 mi West 10.4 mph - N/A   Clear
3:35 AM 12.9 °F 1.6 °F 9.5 °F 86% 30.28 in 10.0 mi West 8.1 mph - N/A   Clear
3:55 AM 13.8 °F 4.9 °F 9.9 °F 84% 30.27 in 10.0 mi WSW 5.8 mph - N/A   Clear
4:15 AM 11.5 °F 0.9 °F 7.7 °F 85% 30.26 in 10.0 mi WSW 6.9 mph - N/A   Clear
4:35 AM 11.8 °F 1.3 °F 8.6 °F 87% 30.26 in 10.0 mi West 6.9 mph - N/A   Clear
4:55 AM 12.7 °F 2.4 °F 9.3 °F 86% 30.26 in 10.0 mi WSW 6.9 mph - N/A   Clear
5:15 AM 12.6 °F 3.4 °F 9.1 °F 86% 30.27 in 10.0 mi West 5.8 mph - N/A   Clear
5:35 AM 12.4 °F 4.6 °F 9.1 °F 87% 30.26 in 10.0 mi WSW 4.6 mph - N/A   Clear
5:55 AM 12.2 °F 6.1 °F 9.0 °F 87% 30.26 in 10.0 mi SW 3.5 mph - N/A   Clear
6:15 AM 11.5 °F 2.1 °F 8.2 °F 87% 30.26 in 10.0 mi WSW 5.8 mph - N/A   Clear
6:35 AM 12.7 °F 2.4 °F 9.7 °F 88% 30.26 in 10.0 mi West 6.9 mph - N/A   Clear
6:55 AM 12.6 °F 2.2 °F 9.3 °F 87% 30.26 in 10.0 mi West 6.9 mph - N/A   Clear
7:15 AM 11.7 °F 5.5 °F 8.2 °F 86% 30.25 in 10.0 mi SW 3.5 mph - N/A   Clear
7:35 AM 14.9 °F 4.0 °F 11.7 °F 87% 30.26 in 10.0 mi WSW 8.1 mph - N/A   Clear
7:55 AM 17.4 °F 8.0 °F 12.9 °F 83% 30.25 in 10.0 mi WSW 6.9 mph - N/A   Clear
11:15 AM 40.6 °F 36.7 °F 21.0 °F 46% 30.21 in 10.0 mi SW 5.8 mph - N/A   Clear
12:35 PM 48.9 °F - 19.0 °F 31% 30.15 in 10.0 mi WSW 8.1 mph - N/A   Clear
12:55 PM 50.2 °F - 19.0 °F 29% 30.13 in 10.0 mi West 6.9 mph - N/A   Clear
1:15 PM 51.1 °F - 18.5 °F 28% 30.12 in 10.0 mi West 4.6 mph - N/A   Clear
1:35 PM 52.7 °F - 17.6 °F 25% 30.11 in 10.0 mi Calm Calm - N/A   Clear
1:55 PM 53.1 °F - 17.1 °F 24% 30.09 in 10.0 mi Calm Calm - N/A   Clear
2:15 PM 54.3 °F - 14.7 °F 21% 30.08 in 10.0 mi NNW 3.5 mph - N/A   Clear
2:35 PM 54.7 °F - 14.2 °F 20% 30.07 in 10.0 mi North 3.5 mph - N/A   Clear
2:55 PM 54.5 °F - 14.4 °F 20% 30.07 in 10.0 mi NNE 3.5 mph - N/A   Clear
3:15 PM 53.8 °F - 14.7 °F 21% 30.06 in 10.0 mi NNE 4.6 mph - N/A   Clear
3:35 PM 52.2 °F - 14.7 °F 23% 30.07 in 10.0 mi Calm Calm - N/A   Clear
3:55 PM 51.6 °F - 14.7 °F 23% 30.07 in 10.0 mi Calm Calm - N/A   Clear
4:15 PM 48.2 °F - 14.2 °F 26% 30.06 in 10.0 mi Calm Calm - N/A   Clear
4:35 PM 42.6 °F - 12.4 °F 29% 30.06 in 10.0 mi Calm Calm - N/A   Clear
4:55 PM 33.4 °F - 11.5 °F 40% 30.06 in 10.0 mi Calm Calm - N/A   Clear
5:15 PM 30.7 °F - 11.7 °F 45% 30.06 in 10.0 mi Calm Calm - N/A   Clear
5:35 PM 28.6 °F - 11.3 °F 48% 30.06 in 10.0 mi Calm Calm - N/A   Clear
5:55 PM 33.6 °F 29.4 °F 12.9 °F 43% 30.05 in 10.0 mi West 4.6 mph - N/A   Clear
6:15 PM 28.6 °F 23.5 °F 13.5 °F 53% 30.05 in 10.0 mi WNW 4.6 mph - N/A   Clear
6:35 PM 28.9 °F 23.9 °F 14.4 °F 55% 30.05 in 10.0 mi West 4.6 mph - N/A   Clear
6:55 PM 28.4 °F - 14.0 °F 55% 30.04 in 10.0 mi Calm Calm - N/A   Clear
7:15 PM 28.2 °F - 14.5 °F 57% 30.03 in 10.0 mi Calm Calm - N/A   Clear
7:35 PM 27.3 °F - 14.2 °F 58% 30.02 in 10.0 mi Calm Calm - N/A   Clear
7:55 PM 25.5 °F - 14.0 °F 62% 30.01 in 10.0 mi Calm Calm - N/A   Clear
8:15 PM 25.9 °F - 13.3 °F 59% 30.00 in 10.0 mi Calm Calm - N/A   Clear
8:35 PM 25.2 °F - 13.8 °F 62% 30.00 in 10.0 mi Calm Calm - N/A   Clear
8:55 PM 23.5 °F - 12.9 °F 64% 29.99 in 10.0 mi Calm Calm - N/A   Clear
9:15 PM 22.8 °F - 12.7 °F 65% 29.98 in 10.0 mi Calm Calm - N/A   Clear
9:35 PM 23.4 °F - 13.8 °F 67% 29.97 in 10.0 mi Calm Calm - N/A   Clear
9:55 PM 21.0 °F - 12.7 °F 70% 29.96 in 10.0 mi Calm Calm - N/A   Clear
10:15 PM 19.4 °F - 12.2 °F 74% 29.96 in 10.0 mi Calm Calm - N/A   Clear
10:35 PM 16.7 °F - 10.4 °F 76% 29.95 in 10.0 mi Calm Calm - N/A   Clear
10:55 PM 17.8 °F - 11.1 °F 75% 29.95 in 10.0 mi Calm Calm - N/A   Clear
11:15 PM 14.7 °F 7.3 °F 9.7 °F 80% 29.95 in 10.0 mi WSW 4.6 mph - N/A   Clear
11:35 PM 16.2 °F 6.5 °F 11.1 °F 81% 29.95 in 10.0 mi West 6.9 mph - N/A   Clear
11:55 PM 18.0 °F 6.1 °F 12.0 °F 78% 29.93 in 10.0 mi West 10.4 mph - N/A   Clear